Simultaneous Nadir Overpasses (SNOs) Predictions

Prediction of SNOs between LANDSAT-8 and NOAA-19 Satellite Orbit:

Table of predicted SNOs for the next 14.0 days since TLE Epoch: 6/15/2018
Index Date (LANDSAT-8) Time (LANDSAT-8) Lat,Lon (LANDSAT-8) SZA (LANDSAT-8 ) Date (NOAA-19) Time (NOAA-19) Lat,Lon (NOAA-19) SZA (NOAA-19 ) Distance(km) Time Diff (sec)
1 06/17/2018 02:53:50 -77.63, -29.65 125.42 06/17/2018 02:53:59 -77.64, -29.62 125.41 1.58 9
2 06/19/2018 08:27:34 77.67, 67.07 54.57 06/19/2018 08:27:30 77.64, 67.08 54.55 2.58 4
3 06/21/2018 14:01:20 -77.68, 163.70 125.44 06/21/2018 14:01:10 -77.67, 163.58 125.46 3.04 10
4 06/21/2018 14:50:51 77.44, -29.66 54.28 06/21/2018 14:52:00 77.41, -27.79 54.37 45.58 69
5 06/23/2018 19:35:05 77.66, -99.81 54.55 06/23/2018 19:34:42 77.70, -99.84 54.58 3.70 23
6 06/23/2018 20:24:33 -77.64, 67.73 125.48 06/23/2018 20:25:45 -77.65, 67.62 125.45 2.84 72
7 06/26/2018 01:08:51 -77.68, -3.18 125.38 06/26/2018 01:08:20 -77.68, -3.09 125.38 2.11 31
8 06/26/2018 01:58:17 77.66, 164.38 54.60 06/26/2018 01:59:17 77.66, 164.26 54.61 2.82 60
9 06/28/2018 06:42:35 77.69, 93.46 54.72 06/28/2018 06:41:53 77.72, 93.41 54.73 2.77 42




NCC Satellite Simultaneous Nadir Overpasses (SNOs) Prediction Service
